IRIDE-MS2-HEO-3 (64568 NORAD) Tracking and Keplerian Element Data

This shows tracking and keplerian element data for the satellite.

Feedback or suggestion? Click here.




ElementValue
Catalog64568
NameIRIDE-MS2-HEO-3
Epoch Orbit2718
Epoch Day354.27141176
Epoch Year2025
RAAN105.7752
Inclination97.76
Eccentricity0.0002841
Argument of Perigee156.5999
Mean Anonmoly203.535
Mean Motion14.928703
Decay Rate2.298E-05
L11 64568U 25135AS 25354.27141176 .00002298 00000+0 22726-3 0 9995
L22 64568 97.7600 105.7752 0002841 156.5999 203.5350 14.92870300 27186



Live tracking and technical data element details for IRIDE-MS2-HEO-3 (NORAD 64568). IRIDE-MS2-HEO-3 can be tracked NOW for your location showing map with azimuth and elevation plus other details from your city location.







IsCatalogInMostPopularTable: catalog: 64568, numindb: 6
Update: records affected: 1



GetName: 64568 IRIDE-MS2-HEO-3

Hit Count: updated at: Sat, 11 Apr 2026 21:50:13 GMT